Regional Weather Roundup
Issued by NWS

Home | Current Version | Previous Version | Text Only | Print | Product List | Glossary On
Versions: 1 2 3 4 5 6 7 8 9 10 11 12 13 14 15 16 17 18 19 20 21 22 23 24 25 26 27 28 29 30 31 32 33 34 35 36 37 38 39 40 41 42 43 44 45 46 47 48 49 50
000
ASUS43 KFSD 012302
RWRSD

WEATHER ROUNDUP FOR SOUTH DAKOTA
NATIONAL WEATHER SERVICE SIOUX FALLS SD
600 PM CDT FRI AUG 01 2014

NOTE: "FAIR" INDICATES FEW OR NO CLOUDS BELOW 12,000 FEET WITH NO
SIGNIFICANT WEATHER AND/OR OBSTRUCTIONS TO VISIBILITY.


SDZ001>005-009-010-012>017-020000-
NORTHWEST AND NORTH CENTRAL SOUTH DAKOTA

CITY           SKY/WX    TMP DP  RH WIND       PRES   REMARKS
BUFFALO          N/A     90  50  25 N9        29.99S
FAITH            N/A     88  48  25 E10       30.00F
MOBRIDGE       MOSUNNY   86  58  38 SE10      30.00S
$$

SDZ012>016-024>037-041>051-057-063-072>074-020000-
SOUTHWEST AND SOUTH CENTRAL SOUTH DAKOTA

CITY           SKY/WX    TMP DP  RH WIND       PRES   REMARKS
RAPID CTY ARPT PTSUNNY   81  49  32 W6        30.09R
PIERRE         SUNNY     90  56  31 E20       29.97F
CUSTER         CLOUDY    69  47  45 N9        30.28R
ELLSWORTH AFB  PTSUNNY   83  50  32 S7        30.06F
PHILIP         PTSUNNY   76  57  51 S10       30.00S
PINE RIDGE     PTSUNNY   85  47  26 NE14G25   30.10S
WINNER         FAIR      93  52  24 SE10      30.02F
$$

SDZ004>011-016>023-039-040-020000-
NORTHEAST SOUTH DAKOTA

CITY           SKY/WX    TMP DP  RH WIND       PRES   REMARKS
ABERDEEN       SUNNY     83  54  36 E7        30.06S
WATERTOWN      PTSUNNY   81  54  39 S6        30.08F
SISSETON         N/A     84  61  45 NE3       30.05S
$$

SDZ017-020-022-023-036>040-048>070-020000-
SOUTHEAST SOUTH DAKOTA

CITY           SKY/WX    TMP DP  RH WIND       PRES   REMARKS
SIOUX FALLS    MOSUNNY   80  60  50 CALM      30.08F
HURON          SUNNY     83  57  41 SE7       30.04F
MITCHELL       SUNNY     83  57  41 SE9       30.07F
YANKTON        SUNNY     81  55  41 E6        30.09S
$$

ABBREVIATIONS USED IN REMARKS
   TC - TEMPERATURE IN CELSIUS
  WCI - WIND CHILL INDEX
   HX - HEAT INDEX
  VSB - VISIBILITY



USA.gov is the U.S. government's official web portal to all federal, state and local government web resources and services.